Orbital Elements at Epoch 2459200.5 (2020-Dec-17.0) TDB
Reference: JPL 30 (heliocentric ecliptic J2000)
Element | Value | Uncertainty (1-sigma) | Units |
e | .108002358730712 | 2.348e-08 | |
a | 2.28021128783041 | 6.4643e-09 | au |
q | 2.033943090340331 | 5.4579e-08 | au |
i | 7.58583492286418 | 8.5467e-07 | deg |
node | 217.8584046882788 | 6.8154e-06 | deg |
peri | 121.8348854745822 | 1.3267e-05 | deg |
M | 105.4388792562826 | 1.3781e-05 | deg |
tp | 2458832.151128213138 (2019-Dec-14.65112821) | 4.765e-05 | TDB |
period | 1257.653673660125 3.44 | 5.3481e-06 1.464e-08 | d yr |
n | .2862473251100193 | 1.2172e-09 | deg/d |
Q | 2.526479485320488 | 7.1624e-09 | au |
|
| | Orbit Determination Parameters
Additional Information
|